Tracking 28790 objects as of 19-Apr-2024
HD Live streaming from Space Station
objects crossing your sky now

OV1-9

Track OV1-9 now!
10-day predictions
OV1-9 is classified as:


NORAD ID: 2610
Int'l Code: 1966-111A
Perigee: 480.3 km
Apogee: 4,529.6 km
Inclination: 99.1 °
Period: 138.7 minutes
Semi major axis: 8875 km
RCS: 0.6636 m2 (medium)
Launch date: December 11, 1966
Source: United States (US)
Launch site: AIR FORCE WESTERN TEST RANGE (AFWTR)
Your satellite tracking list
Your tracking list is empty




NASA's NSSDC Master Catalog

Two Line Element Set (TLE):
1 02610U 66111A   24109.37120624  .00003146  00000-0  12381-2 0  9996
2 02610  99.1026 259.8007 2281060 144.0625 233.7847 10.38207133150996
Source of the keplerian elements: AFSPC